#timestamp,LO_Frequency,Hit 
1504198815.8,286047000.0,N
1504198835.6,286047000.0,N
1504198855.4,286047002.4,N
1504198875.3,286047000.2,N
1504198895.1,286047002.7,N
1504198915.8,286047001.5,N
1504198935.7,286047001.4,N
1504198955.5,286047002.0,N
1504198975.3,286047004.6,P
1504198995.2,286047005.0,N
1504199015.0,286047001.3,N
1504199015.9,286047001.3,N
1504199035.7,286047002.8,N
1504199055.6,286047000.1,N
1504199075.4,286047001.3,N
1504199095.2,286047003.6,N
1504199115.1,286047003.0,N
1504199116.0,286047003.0,N
1504199135.8,286047003.8,N
1504199155.6,286047001.8,N
1504199175.5,286047004.0,N
1504199195.3,286047004.1,N
1504199215.1,286047005.3,P
1504199235.9,286047001.6,N
1504199255.7,286047003.5,N
1504199275.5,286047003.6,N
1504199295.4,286047003.4,N
1504199315.2,286047004.9,P
1504199335.0,286047001.0,N
1504199335.9,286047001.0,N
1504199355.8,286047000.5,N
1504199375.6,286046999.3,N
1504199395.4,286046999.5,N
1504199415.3,286047000.4,N
1504199435.1,286046999.9,N
1504199436.0,286046999.9,N
1504199455.8,286047000.3,N
1504199475.7,286047000.2,N
1504199495.5,286046998.1,N
1504199515.3,286047000.7,N
1504199535.1,286047000.8,N
1504199555.9,286047002.1,N
1504199575.7,286047003.0,N
1504199595.6,286047005.3,P
1504199615.4,286047004.1,N
1504199635.2,286047004.2,N
1504199655.0,286046999.9,N
1504199656.0,286046999.9,N
1504199675.8,286047002.5,N
1504199695.6,286047005.6,N
1504199715.5,286047007.5,P
1504199735.3,286047003.6,N
1504199755.1,286047003.4,N
1504199775.8,286047002.7,N
1504199795.7,286047001.5,N
1504199815.5,286047001.6,N
1504199835.3,286047002.9,N
1504199855.2,286047005.9,P
1504199875.0,286047000.4,N
1504199875.9,286047000.4,N
1504199895.8,286046999.6,N
1504199915.6,286046997.7,N
1504199935.4,286046993.7,N
1504199955.2,286046993.4,N
1504199975.1,286046996.4,N
1504199976.0,286046996.4,N
1504199995.8,286046996.3,N
1504200015.6,286046994.0,N
1504200035.5,286046994.0,N
1504200055.3,286046995.4,N
1504200075.1,286046995.8,N
1504200095.9,286046995.3,N
1504200115.7,286046998.9,N
1504200135.5,286046998.1,N
1504200155.4,286046998.8,N
1504200175.2,286046998.4,N
1504200195.0,286047001.2,N
1504200195.9,286047001.2,N
1504200215.7,286047004.0,N
1504200235.6,286047001.6,N
1504200255.4,286047004.0,N
1504200275.2,286047001.3,N
1504200295.1,286047002.8,N
1504200296.0,286047002.8,N
1504200315.8,286047000.3,N
1504200335.6,286047002.0,N
1504200355.5,286047002.9,N
1504200375.3,286047003.2,N
1504200395.1,286047001.3,N
1504200415.9,286047002.0,N
1504200435.7,286047003.4,N
1504200455.5,286047004.2,N
1504200475.4,286047000.1,N
1504200495.2,286047000.1,N
1504200515.0,286047004.2,N
1504200515.9,286047004.2,N
1504200535.8,286047003.6,N
1504200555.6,286047001.5,N
1504200575.4,286047002.4,N
1504200595.2,286047003.9,N
1504200615.1,286047003.0,N
1504200616.0,286047003.0,N
1504200635.8,286047004.3,N
1504200655.6,286047002.9,N
1504200675.5,286047001.6,N
1504200695.3,286047001.5,N
1504200715.1,286047001.9,N
1504200735.9,286047003.0,N
1504200755.7,286047003.9,P
1504200775.5,286047002.8,P
1504200795.4,286047002.7,P
1504200815.2,286047001.3,N
1504200835.0,286047002.8,P
1504200835.9,286047002.8,P
1504200855.8,286046998.6,P
1504200875.6,286047001.2,N
1504200895.4,286047002.8,N
1504200915.3,286047004.4,N
1504200935.1,286047004.0,N
1504200955.8,286047003.2,N
1504200975.7,286047001.8,N
1504200995.5,286047006.0,P
1504201015.3,286047001.9,N
1504201035.2,286047000.0,N
1504201055.0,286046999.6,N
1504201055.9,286046999.6,N
1504201075.7,286046998.2,N
1504201095.6,286046996.9,N
1504201115.4,286046996.8,N
1504201135.2,286046997.5,N
1504201155.1,286046997.0,N
1504201156.0,286046997.0,N
1504201175.8,286046998.6,N
1504201195.6,286046999.9,N
1504201215.5,286047002.4,N
1504201235.3,286047000.4,N
1504201255.1,286046998.4,N
1504201275.9,286046999.4,N
1504201295.7,286047002.1,N
1504201315.5,286047000.5,N
1504201335.3,286047001.3,N
1504201355.2,286047005.6,N
1504201375.0,286047003.1,N
1504201375.9,286047003.1,N
1504201395.7,286047005.4,N
1504201415.6,286047005.2,N
1504201435.4,286047001.8,N
1504201455.2,286047003.1,N
1504201475.1,286047001.4,N
1504201476.0,286047001.4,N
1504201495.8,286046999.7,N
1504201515.6,286047002.7,N
1504201535.5,286047002.2,N
1504201555.3,286047001.7,N
1504201575.1,286047005.6,N
1504201595.9,286047003.0,N
1504201615.7,286047004.3,N
1504201635.5,286047004.0,N
1504201655.4,286047002.9,N
1504201675.2,286047003.8,N
1504201695.0,286047003.5,N
1504201695.9,286047003.5,N
1504201715.7,286047001.7,N
1504201735.6,286047005.7,P
1504201755.4,286047001.1,N
1504201775.3,286047002.7,N
1504201795.1,286047001.9,N
1504201796.0,286047001.9,N
1504201815.8,286047002.4,N
1504201835.6,286047002.7,N
1504201855.5,286047001.3,N
1504201875.3,286047001.8,N
1504201895.1,286047002.1,N
1504201915.9,286047004.0,P
1504201935.7,286047000.2,N
1504201955.5,286047000.1,N
1504201975.4,286047001.5,N
1504201995.2,286047001.3,N
1504202015.0,286047004.6,P
1504202016.0,286047004.6,P
1504202035.8,286047004.4,P
1504202055.6,286047004.3,P
1504202075.5,286046999.2,P
1504202095.3,286046998.5,N
1504202115.1,286046998.9,N
1504202135.8,286047000.6,N
1504202155.7,286047004.7,N
1504202175.5,286047007.1,N
1504202195.3,286047007.1,N
1504202215.2,286047001.3,N
1504202235.9,286047000.6,N
1504202255.7,286047002.5,N
1504202275.6,286047000.4,N
1504202295.4,286046998.5,N
1504202315.2,286047001.9,N
1504202335.1,286047000.3,N
1504202336.0,286047000.3,N
1504202355.8,286047000.7,N
1504202375.6,286047003.9,N
1504202395.5,286047001.3,N
